Time,TemperatureF,DewpointF,PressureIn,WindDirection,WindDirectionDegrees,WindSpeedMPH,WindSpeedGustMPH,Humidity,HourlyPrecipIn,Conditions,Clouds,dailyrainin,SoftwareType,DateUTC
2013-03-28 00:02:00,26.1,18.3,30.22,ESE,105,1.0,4.0,72,0.00,,,0.00,meteohub,2013-03-28 06:02:00,
2013-03-28 00:07:00,25.9,18.1,30.22,ESE,113,1.0,4.0,72,0.00,,,0.00,meteohub,2013-03-28 06:07:00,
2013-03-28 00:12:00,25.7,18.3,30.22,ESE,113,2.0,4.0,73,0.00,,,0.00,meteohub,2013-03-28 06:12:00,
2013-03-28 00:18:00,25.5,18.1,30.22,ESE,113,1.0,4.0,73,0.00,,,0.00,meteohub,2013-03-28 06:18:00,
2013-03-28 00:23:00,25.5,18.1,30.21,ESE,112,2.0,3.0,73,0.00,,,0.00,meteohub,2013-03-28 06:23:00,
2013-03-28 00:28:00,25.7,18.3,30.21,ESE,111,2.0,3.0,73,0.00,,,0.00,meteohub,2013-03-28 06:28:00,
2013-03-28 00:33:00,25.5,18.3,30.21,ESE,111,0.0,3.0,74,0.00,,,0.00,meteohub,2013-03-28 06:33:00,
2013-03-28 00:38:00,25.5,18.1,30.21,ESE,111,1.0,3.0,73,0.00,,,0.00,meteohub,2013-03-28 06:38:00,
2013-03-28 00:43:00,25.2,18.0,30.21,ESE,111,2.0,3.0,74,0.00,,,0.00,meteohub,2013-03-28 06:43:00,
2013-03-28 00:49:00,25.2,18.0,30.21,ESE,121,1.0,3.0,74,0.00,,,0.00,meteohub,2013-03-28 06:49:00,
2013-03-28 00:54:00,25.0,18.0,30.21,ESE,121,1.0,4.0,74,0.00,,,0.00,meteohub,2013-03-28 06:54:00,
2013-03-28 01:00:00,25.0,18.1,30.21,East,81,1.0,4.0,75,0.00,,,0.00,meteohub,2013-03-28 07:00:00,
2013-03-28 01:05:00,25.0,18.1,30.21,East,81,2.0,3.0,75,0.00,,,0.00,meteohub,2013-03-28 07:05:00,
2013-03-28 01:10:00,24.4,17.6,30.21,ESE,117,2.0,3.0,75,0.00,,,0.00,meteohub,2013-03-28 07:10:00,
2013-03-28 01:15:00,24.4,18.0,30.21,East,98,1.0,3.0,76,0.00,,,0.00,meteohub,2013-03-28 07:15:00,
2013-03-28 01:21:00,24.3,17.8,30.21,East,100,2.0,3.0,76,0.00,,,0.00,meteohub,2013-03-28 07:21:00,
2013-03-28 01:26:00,24.3,17.8,30.21,ESE,109,2.0,3.0,76,0.00,,,0.00,meteohub,2013-03-28 07:26:00,
2013-03-28 01:31:00,24.3,17.8,30.21,ESE,109,1.0,3.0,76,0.00,,,0.00,meteohub,2013-03-28 07:31:00,
2013-03-28 01:36:00,24.1,17.6,30.21,East,97,2.0,3.0,76,0.00,,,0.00,meteohub,2013-03-28 07:36:00,
2013-03-28 01:41:00,24.1,18.0,30.21,East,96,2.0,3.0,77,0.00,,,0.00,meteohub,2013-03-28 07:41:00,
2013-03-28 01:46:00,24.1,17.6,30.21,ESE,104,2.0,3.0,76,0.00,,,0.00,meteohub,2013-03-28 07:46:00,
2013-03-28 01:51:00,24.1,17.6,30.22,ESE,104,2.0,3.0,76,0.00,,,0.00,meteohub,2013-03-28 07:51:00,
2013-03-28 01:57:00,23.7,17.2,30.21,ESE,106,2.0,3.0,76,0.00,,,0.00,meteohub,2013-03-28 07:57:00,
2013-03-28 02:02:00,23.7,17.2,30.21,ESE,105,2.0,3.0,76,0.00,,,0.00,meteohub,2013-03-28 08:02:00,
2013-03-28 02:07:00,24.1,17.6,30.22,NNE,28,0.0,4.0,76,0.00,,,0.00,meteohub,2013-03-28 08:07:00,
2013-03-28 02:12:00,23.7,17.2,30.21,SE,131,3.0,4.0,76,0.00,,,0.00,meteohub,2013-03-28 08:12:00,
2013-03-28 02:17:00,23.5,17.1,30.21,SE,129,1.0,4.0,76,0.00,,,0.00,meteohub,2013-03-28 08:17:00,
2013-03-28 02:22:00,23.5,17.4,30.21,SE,129,2.0,4.0,77,0.00,,,0.00,meteohub,2013-03-28 08:22:00,
2013-03-28 02:27:00,23.5,17.1,30.21,SE,129,3.0,4.0,76,0.00,,,0.00,meteohub,2013-03-28 08:27:00,
2013-03-28 02:32:00,23.7,17.2,30.21,SE,129,2.0,3.0,76,0.00,,,0.00,meteohub,2013-03-28 08:32:00,
2013-03-28 02:37:00,23.4,16.9,30.22,NE,42,4.0,4.0,76,0.00,,,0.00,meteohub,2013-03-28 08:37:00,
2013-03-28 02:42:00,23.5,17.1,30.22,SE,124,2.0,5.0,76,0.00,,,0.00,meteohub,2013-03-28 08:42:00,
2013-03-28 02:47:00,23.5,16.7,30.21,East,89,2.0,5.0,75,0.00,,,0.00,meteohub,2013-03-28 08:47:00,
2013-03-28 02:52:00,23.4,17.2,30.21,ESE,121,3.0,5.0,77,0.00,,,0.00,meteohub,2013-03-28 08:52:00,
2013-03-28 02:57:00,23.4,16.9,30.21,ESE,121,1.0,4.0,76,0.00,,,0.00,meteohub,2013-03-28 08:57:00,
2013-03-28 03:02:00,23.2,16.5,30.21,ESE,121,2.0,4.0,75,0.00,,,0.00,meteohub,2013-03-28 09:02:00,
2013-03-28 03:07:00,23.2,17.1,30.21,NE,42,3.0,4.0,77,0.00,,,0.00,meteohub,2013-03-28 09:07:00,
2013-03-28 03:12:00,23.2,17.1,30.21,ENE,60,2.0,4.0,77,0.00,,,0.00,meteohub,2013-03-28 09:12:00,
2013-03-28 03:17:00,23.2,17.1,30.21,NE,38,1.0,4.0,77,0.00,,,0.00,meteohub,2013-03-28 09:17:00,
2013-03-28 03:22:00,23.0,16.9,30.22,North,10,4.0,4.0,77,0.00,,,0.00,meteohub,2013-03-28 09:22:00,
2013-03-28 03:27:00,23.0,16.9,30.21,ESE,102,2.0,6.0,77,0.00,,,0.00,meteohub,2013-03-28 09:27:00,
2013-03-28 03:32:00,22.8,16.7,30.21,ENE,62,3.0,6.0,77,0.00,,,0.00,meteohub,2013-03-28 09:32:00,
2013-03-28 03:37:00,22.6,16.5,30.22,ESE,121,2.0,6.0,77,0.00,,,0.00,meteohub,2013-03-28 09:37:00,
2013-03-28 03:42:00,22.6,16.5,30.21,ENE,59,3.0,5.0,77,0.00,,,0.00,meteohub,2013-03-28 09:42:00,
2013-03-28 03:48:00,22.5,16.3,30.22,ENE,65,2.0,4.0,77,0.00,,,0.00,meteohub,2013-03-28 09:48:00,
2013-03-28 03:53:00,22.5,16.3,30.22,ESE,121,2.0,4.0,77,0.00,,,0.00,meteohub,2013-03-28 09:53:00,
2013-03-28 03:58:00,22.3,16.2,30.22,NE,54,3.0,4.0,77,0.00,,,0.00,meteohub,2013-03-28 09:58:00,
2013-03-28 04:03:00,22.3,16.2,30.22,NE,36,1.0,4.0,77,0.00,,,0.00,meteohub,2013-03-28 10:03:00,
2013-03-28 04:08:00,22.1,16.3,30.22,NE,54,2.0,4.0,78,0.00,,,0.00,meteohub,2013-03-28 10:08:00,
2013-03-28 04:13:00,21.9,16.2,30.22,NNE,24,3.0,4.0,78,0.00,,,0.00,meteohub,2013-03-28 10:13:00,
2013-03-28 04:19:00,21.9,16.2,30.22,NE,43,3.0,5.0,78,0.00,,,0.00,meteohub,2013-03-28 10:19:00,
2013-03-28 04:24:00,21.7,16.0,30.22,NE,38,4.0,5.0,78,0.00,,,0.00,meteohub,2013-03-28 10:24:00,
2013-03-28 04:29:00,21.7,16.0,30.22,NE,53,2.0,5.0,78,0.00,,,0.00,meteohub,2013-03-28 10:29:00,
2013-03-28 04:34:00,21.6,15.8,30.22,NE,49,2.0,5.0,78,0.00,,,0.00,meteohub,2013-03-28 10:34:00,
2013-03-28 04:39:00,21.4,15.6,30.22,East,94,2.0,4.0,78,0.00,,,0.00,meteohub,2013-03-28 10:39:00,
2013-03-28 04:45:00,21.0,15.6,30.22,NE,37,1.0,4.0,79,0.00,,,0.00,meteohub,2013-03-28 10:45:00,
2013-03-28 04:50:00,20.8,15.6,30.22,NE,49,1.0,4.0,80,0.00,,,0.00,meteohub,2013-03-28 10:50:00,
2013-03-28 04:55:00,20.7,15.3,30.22,ENE,76,2.0,4.0,79,0.00,,,0.00,meteohub,2013-03-28 10:55:00,
2013-03-28 05:00:00,20.5,15.1,30.22,ESE,116,1.0,4.0,79,0.00,,,0.00,meteohub,2013-03-28 11:00:00,
2013-03-28 05:05:00,20.1,14.9,30.22,NE,54,2.0,4.0,80,0.00,,,0.00,meteohub,2013-03-28 11:05:00,
2013-03-28 05:11:00,20.1,14.7,30.22,East,96,2.0,5.0,79,0.00,,,0.00,meteohub,2013-03-28 11:11:00,
2013-03-28 05:17:00,19.8,14.5,30.22,East,91,2.0,5.0,80,0.00,,,0.00,meteohub,2013-03-28 11:17:00,
2013-03-28 05:22:00,19.8,14.9,30.22,ENE,60,1.0,4.0,81,0.00,,,0.00,meteohub,2013-03-28 11:22:00,
2013-03-28 05:27:00,19.6,14.7,30.22,NE,46,1.0,4.0,81,0.00,,,0.00,meteohub,2013-03-28 11:27:00,
2013-03-28 05:32:00,19.6,14.2,30.23,East,96,2.0,4.0,79,0.00,,,0.00,meteohub,2013-03-28 11:32:00,
2013-03-28 05:37:00,19.6,14.7,30.22,NE,55,3.0,4.0,81,0.00,,,0.00,meteohub,2013-03-28 11:37:00,
2013-03-28 05:42:00,19.6,14.7,30.23,NE,55,1.0,5.0,81,0.00,,,0.00,meteohub,2013-03-28 11:42:00,
2013-03-28 05:47:00,19.6,14.2,30.23,NE,55,1.0,5.0,79,0.00,,,0.00,meteohub,2013-03-28 11:47:00,
2013-03-28 05:53:00,19.2,14.0,30.23,ENE,72,1.0,5.0,80,0.00,,,0.00,meteohub,2013-03-28 11:53:00,
2013-03-28 05:58:00,19.0,13.8,30.23,East,86,1.0,2.0,80,0.00,,,0.00,meteohub,2013-03-28 11:58:00,
2013-03-28 06:03:00,18.9,14.0,30.23,NE,46,2.0,3.0,81,0.00,,,0.00,meteohub,2013-03-28 12:03:00,
2013-03-28 06:09:00,19.0,14.5,30.24,ENE,74,3.0,6.0,82,0.00,,,0.00,meteohub,2013-03-28 12:09:00,
2013-03-28 06:14:00,19.2,14.4,30.24,ESE,113,1.0,6.0,81,0.00,,,0.00,meteohub,2013-03-28 12:14:00,
2013-03-28 06:19:00,19.2,14.4,30.24,ENE,71,3.0,6.0,81,0.00,,,0.00,meteohub,2013-03-28 12:19:00,
2013-03-28 06:24:00,19.2,14.7,30.24,ENE,70,2.0,4.0,82,0.00,,,0.00,meteohub,2013-03-28 12:24:00,
2013-03-28 06:30:00,19.2,14.4,30.24,ENE,67,2.0,4.0,81,0.00,,,0.00,meteohub,2013-03-28 12:30:00,
2013-03-28 06:35:00,19.0,14.2,30.24,East,93,2.0,4.0,81,0.00,,,0.00,meteohub,2013-03-28 12:35:00,
2013-03-28 06:40:00,19.2,14.4,30.24,NE,40,1.0,3.0,81,0.00,,,0.00,meteohub,2013-03-28 12:40:00,
2013-03-28 06:45:00,18.9,13.5,30.25,ESE,106,1.0,4.0,79,0.00,,,0.00,meteohub,2013-03-28 12:45:00,
2013-03-28 06:50:00,18.5,13.6,30.25,ESE,105,2.0,4.0,81,0.00,,,0.00,meteohub,2013-03-28 12:50:00,
2013-03-28 06:56:00,18.3,13.5,30.25,ESE,108,1.0,4.0,81,0.00,,,0.00,meteohub,2013-03-28 12:56:00,
2013-03-28 07:01:00,18.1,13.1,30.25,East,98,3.0,3.0,80,0.00,,,0.00,meteohub,2013-03-28 13:01:00,
2013-03-28 07:07:00,18.0,13.5,30.26,ENE,71,2.0,3.0,82,0.00,,,0.00,meteohub,2013-03-28 13:07:00,
2013-03-28 07:12:00,18.1,13.8,30.26,NE,51,3.0,3.0,83,0.00,,,0.00,meteohub,2013-03-28 13:12:00,
2013-03-28 07:17:00,18.1,13.3,30.26,East,96,2.0,3.0,81,0.00,,,0.00,meteohub,2013-03-28 13:17:00,
2013-03-28 07:22:00,18.3,13.8,30.27,NE,51,2.0,4.0,82,0.00,,,0.00,meteohub,2013-03-28 13:22:00,
2013-03-28 07:27:00,18.7,13.5,30.27,ESE,117,0.0,5.0,80,0.00,,,0.00,meteohub,2013-03-28 13:27:00,
2013-03-28 07:32:00,18.7,14.2,30.27,ESE,113,1.0,5.0,82,0.00,,,0.00,meteohub,2013-03-28 13:32:00,
2013-03-28 07:37:00,18.5,13.6,30.28,ESE,113,1.0,4.0,81,0.00,,,0.00,meteohub,2013-03-28 13:37:00,
2013-03-28 07:43:00,18.5,13.6,30.28,ESE,113,1.0,3.0,81,0.00,,,0.00,meteohub,2013-03-28 13:43:00,
2013-03-28 07:48:00,18.5,13.6,30.28,NE,46,3.0,3.0,81,0.00,,,0.00,meteohub,2013-03-28 13:48:00,
2013-03-28 07:53:00,18.9,14.4,30.29,NE,44,2.0,4.0,82,0.00,,,0.00,meteohub,2013-03-28 13:53:00,
2013-03-28 07:59:00,19.4,14.5,30.29,East,96,2.0,5.0,81,0.00,,,0.00,meteohub,2013-03-28 13:59:00,
2013-03-28 08:04:00,19.8,14.5,30.29,East,94,2.0,5.0,80,0.00,,,0.00,meteohub,2013-03-28 14:04:00,
2013-03-28 08:09:00,19.9,14.5,30.29,ENE,65,1.0,5.0,79,0.00,,,0.00,meteohub,2013-03-28 14:09:00,
2013-03-28 08:14:00,20.1,14.4,30.29,ENE,65,2.0,4.0,78,0.00,,,0.00,meteohub,2013-03-28 14:14:00,
2013-03-28 08:19:00,20.1,14.4,30.29,ENE,65,2.0,4.0,78,0.00,,,0.00,meteohub,2013-03-28 14:19:00,
2013-03-28 08:24:00,20.1,14.4,30.29,ENE,65,1.0,3.0,78,0.00,,,0.00,meteohub,2013-03-28 14:24:00,
2013-03-28 08:29:00,20.1,14.4,30.29,East,96,1.0,3.0,78,0.00,,,0.00,meteohub,2013-03-28 14:29:00,
2013-03-28 08:35:00,20.5,14.7,30.29,ESE,117,2.0,3.0,78,0.00,,,0.00,meteohub,2013-03-28 14:35:00,
2013-03-28 08:40:00,20.8,15.1,30.29,ESE,117,1.0,3.0,78,0.00,,,0.00,meteohub,2013-03-28 14:40:00,
2013-03-28 08:45:00,21.6,15.8,30.29,ESE,117,0.0,3.0,78,0.00,,,0.00,meteohub,2013-03-28 14:45:00,
2013-03-28 08:50:00,22.3,15.6,30.29,ESE,117,0.0,2.0,75,0.00,,,0.00,meteohub,2013-03-28 14:50:00,
2013-03-28 08:55:00,22.8,15.8,30.30,ESE,117,0.0,2.0,74,0.00,,,0.00,meteohub,2013-03-28 14:55:00,
2013-03-28 09:00:00,23.9,16.2,30.29,ESE,117,0.0,2.0,72,0.00,,,0.00,meteohub,2013-03-28 15:00:00,
2013-03-28 09:05:00,24.8,16.7,30.30,ESE,117,2.0,2.0,71,0.00,,,0.00,meteohub,2013-03-28 15:05:00,
2013-03-28 09:11:00,25.9,16.7,30.29,ESE,117,0.0,2.0,68,0.00,,,0.00,meteohub,2013-03-28 15:11:00,
2013-03-28 09:16:00,27.3,17.1,30.29,SSE,155,1.0,2.0,65,0.00,,,0.00,meteohub,2013-03-28 15:16:00,
2013-03-28 09:21:00,28.9,17.2,30.29,SSE,165,1.0,2.0,61,0.00,,,0.00,meteohub,2013-03-28 15:21:00,
2013-03-28 09:27:00,30.4,17.4,30.29,SSE,165,1.0,3.0,58,0.00,,,0.00,meteohub,2013-03-28 15:27:00,
2013-03-28 09:32:00,31.8,18.0,30.29,SSE,165,0.0,3.0,56,0.00,,,0.00,meteohub,2013-03-28 15:32:00,
2013-03-28 09:37:00,33.1,17.8,30.29,SW,236,2.0,2.0,53,0.00,,,0.00,meteohub,2013-03-28 15:37:00,
2013-03-28 09:42:00,34.0,17.8,30.29,WSW,249,2.0,2.0,51,0.00,,,0.00,meteohub,2013-03-28 15:42:00,
2013-03-28 09:47:00,34.9,17.6,30.29,West,267,1.0,3.0,49,0.00,,,0.00,meteohub,2013-03-28 15:47:00,
2013-03-28 09:52:00,36.0,18.1,30.29,WSW,255,3.0,5.0,48,0.00,,,0.00,meteohub,2013-03-28 15:52:00,
2013-03-28 09:57:00,36.9,18.5,30.29,WSW,257,3.0,5.0,47,0.00,,,0.00,meteohub,2013-03-28 15:57:00,
2013-03-28 10:02:00,37.6,19.2,30.29,WNW,299,2.0,5.0,47,0.00,,,0.00,meteohub,2013-03-28 16:02:00,
2013-03-28 10:07:00,38.7,19.2,30.29,SW,232,3.0,5.0,45,0.00,,,0.00,meteohub,2013-03-28 16:07:00,
2013-03-28 10:13:00,39.0,19.4,30.29,SW,224,4.0,5.0,45,0.00,,,0.00,meteohub,2013-03-28 16:13:00,
2013-03-28 10:18:00,39.4,18.7,30.28,WNW,282,2.0,5.0,43,0.00,,,0.00,meteohub,2013-03-28 16:18:00,
2013-03-28 10:23:00,39.9,19.2,30.28,WSW,253,2.0,5.0,43,0.00,,,0.00,meteohub,2013-03-28 16:23:00,
2013-03-28 10:28:00,40.5,18.7,30.28,WNW,284,1.0,6.0,41,0.00,,,0.00,meteohub,2013-03-28 16:28:00,
2013-03-28 10:33:00,41.5,17.2,30.28,SW,227,3.0,6.0,37,0.00,,,0.00,meteohub,2013-03-28 16:33:00,
2013-03-28 10:39:00,42.3,15.8,30.28,West,265,3.0,6.0,34,0.00,,,0.00,meteohub,2013-03-28 16:39:00,
2013-03-28 10:44:00,42.8,16.3,30.28,WSW,257,1.0,5.0,34,0.00,,,0.00,meteohub,2013-03-28 16:44:00,
2013-03-28 10:49:00,43.2,16.0,30.28,WSW,253,2.0,7.0,33,0.00,,,0.00,meteohub,2013-03-28 16:49:00,
2013-03-28 10:54:00,43.5,16.3,30.28,SW,228,2.0,7.0,33,0.00,,,0.00,meteohub,2013-03-28 16:54:00,
2013-03-28 10:59:00,43.9,16.0,30.28,West,276,3.0,7.0,32,0.00,,,0.00,meteohub,2013-03-28 16:59:00,
2013-03-28 11:04:00,44.1,16.2,30.28,SW,232,3.0,7.0,32,0.00,,,0.00,meteohub,2013-03-28 17:04:00,
2013-03-28 11:10:00,44.2,16.2,30.28,WSW,250,3.0,7.0,32,0.00,,,0.00,meteohub,2013-03-28 17:10:00,
2013-03-28 11:15:00,44.6,15.8,30.28,West,274,1.0,7.0,31,0.00,,,0.00,meteohub,2013-03-28 17:15:00,
2013-03-28 11:20:00,44.8,16.0,30.28,WSW,248,4.0,9.0,31,0.00,,,0.00,meteohub,2013-03-28 17:20:00,
2013-03-28 11:25:00,44.8,16.0,30.28,NW,311,0.0,9.0,31,0.00,,,0.00,meteohub,2013-03-28 17:25:00,
2013-03-28 11:30:00,44.8,15.3,30.28,WNW,294,3.0,8.0,30,0.00,,,0.00,meteohub,2013-03-28 17:30:00,
2013-03-28 11:35:00,44.8,15.3,30.28,SW,236,0.0,8.0,30,0.00,,,0.00,meteohub,2013-03-28 17:35:00,
2013-03-28 11:40:00,45.1,16.3,30.28,WNW,303,4.0,8.0,31,0.00,,,0.00,meteohub,2013-03-28 17:40:00,
2013-03-28 11:46:00,45.9,16.9,30.28,WSW,258,3.0,9.0,31,0.00,,,0.00,meteohub,2013-03-28 17:46:00,
2013-03-28 11:51:00,46.0,17.1,30.27,West,271,3.0,9.0,31,0.00,,,0.00,meteohub,2013-03-28 17:51:00,
2013-03-28 11:56:00,46.4,15.8,30.27,South,177,2.0,9.0,29,0.00,,,0.00,meteohub,2013-03-28 17:56:00,
2013-03-28 12:02:00,46.4,15.8,30.27,WNW,283,5.0,6.0,29,0.00,,,0.00,meteohub,2013-03-28 18:02:00,
2013-03-28 12:07:00,46.0,17.1,30.27,WNW,295,2.0,6.0,31,0.00,,,0.00,meteohub,2013-03-28 18:07:00,
2013-03-28 12:12:00,46.0,15.6,30.27,NW,316,1.0,7.0,29,0.00,,,0.00,meteohub,2013-03-28 18:12:00,
2013-03-28 12:17:00,46.8,16.9,30.27,WSW,257,1.0,7.0,30,0.00,,,0.00,meteohub,2013-03-28 18:17:00,
2013-03-28 12:23:00,46.9,17.1,30.26,West,275,3.0,7.0,30,0.00,,,0.00,meteohub,2013-03-28 18:23:00,
2013-03-28 12:28:00,47.5,16.0,30.26,West,273,2.0,9.0,28,0.00,,,0.00,meteohub,2013-03-28 18:28:00,
2013-03-28 12:33:00,47.1,17.2,30.26,NW,324,2.0,9.0,30,0.00,,,0.00,meteohub,2013-03-28 18:33:00,
2013-03-28 12:38:00,47.7,17.8,30.25,NNW,347,1.0,8.0,30,0.00,,,0.00,meteohub,2013-03-28 18:38:00,
2013-03-28 12:43:00,47.8,16.3,30.25,NNW,342,0.0,8.0,28,0.00,,,0.00,meteohub,2013-03-28 18:43:00,
2013-03-28 12:48:00,48.6,17.8,30.25,WNW,295,8.0,8.0,29,0.00,,,0.00,meteohub,2013-03-28 18:48:00,
2013-03-28 12:54:00,48.7,16.2,30.25,West,261,3.0,8.0,27,0.00,,,0.00,meteohub,2013-03-28 18:54:00,
2013-03-28 12:59:00,48.7,18.0,30.25,NNW,334,3.0,11.0,29,0.00,,,0.00,meteohub,2013-03-28 18:59:00,
2013-03-28 13:04:00,48.7,17.1,30.24,NE,36,0.0,13.0,28,0.00,,,0.00,meteohub,2013-03-28 19:04:00,
2013-03-28 13:09:00,48.7,16.2,30.24,SSW,212,5.0,13.0,27,0.00,,,0.00,meteohub,2013-03-28 19:09:00,
2013-03-28 13:14:00,48.2,16.5,30.24,WNW,298,5.0,13.0,28,0.00,,,0.00,meteohub,2013-03-28 19:14:00,
2013-03-28 13:20:00,48.2,16.5,30.24,NW,313,6.0,11.0,28,0.00,,,0.00,meteohub,2013-03-28 19:20:00,
2013-03-28 13:25:00,48.4,16.0,30.24,SW,220,3.0,11.0,27,0.00,,,0.00,meteohub,2013-03-28 19:25:00,
2013-03-28 13:30:00,48.6,16.9,30.24,WSW,238,4.0,11.0,28,0.00,,,0.00,meteohub,2013-03-28 19:30:00,
2013-03-28 13:36:00,48.6,16.2,30.24,NNW,328,1.0,10.0,27,0.00,,,0.00,meteohub,2013-03-28 19:36:00,
2013-03-28 13:41:00,48.6,17.8,30.24,North,9,1.0,10.0,29,0.00,,,0.00,meteohub,2013-03-28 19:41:00,
2013-03-28 13:47:00,49.3,17.6,30.23,NNW,338,2.0,8.0,28,0.00,,,0.00,meteohub,2013-03-28 19:47:00,
2013-03-28 13:52:00,49.5,16.9,30.23,WNW,288,1.0,8.0,27,0.00,,,0.00,meteohub,2013-03-28 19:52:00,
2013-03-28 13:57:00,49.6,18.7,30.23,West,280,2.0,8.0,29,0.00,,,0.00,meteohub,2013-03-28 19:57:00,
2013-03-28 14:02:00,49.6,17.8,30.23,NW,325,2.0,7.0,28,0.00,,,0.00,meteohub,2013-03-28 20:02:00,
2013-03-28 14:07:00,49.6,17.1,30.23,SW,236,3.0,8.0,27,0.00,,,0.00,meteohub,2013-03-28 20:07:00,
2013-03-28 14:13:00,48.7,15.4,30.23,NNW,327,3.0,8.0,26,0.00,,,0.00,meteohub,2013-03-28 20:13:00,
2013-03-28 14:18:00,48.0,17.2,30.22,NE,47,2.0,10.0,29,0.00,,,0.00,meteohub,2013-03-28 20:18:00,
2013-03-28 14:23:00,47.8,16.3,30.22,SW,214,2.0,10.0,28,0.00,,,0.00,meteohub,2013-03-28 20:23:00,
2013-03-28 14:29:00,48.0,16.5,30.22,WNW,290,2.0,8.0,28,0.00,,,0.00,meteohub,2013-03-28 20:29:00,
2013-03-28 14:34:00,48.6,15.3,30.22,WSW,242,0.0,6.0,26,0.00,,,0.00,meteohub,2013-03-28 20:34:00,
2013-03-28 14:39:00,48.6,16.2,30.22,WSW,251,4.0,7.0,27,0.00,,,0.00,meteohub,2013-03-28 20:39:00,
2013-03-28 14:44:00,48.4,17.6,30.22,NW,312,3.0,7.0,29,0.00,,,0.00,meteohub,2013-03-28 20:44:00,
2013-03-28 14:49:00,48.2,17.4,30.22,SW,215,4.0,11.0,29,0.00,,,0.00,meteohub,2013-03-28 20:49:00,
2013-03-28 14:55:00,47.7,16.9,30.22,WNW,288,1.0,11.0,29,0.00,,,0.00,meteohub,2013-03-28 20:55:00,
2013-03-28 15:00:00,47.7,17.8,30.22,NW,323,4.0,11.0,30,0.00,,,0.00,meteohub,2013-03-28 21:00:00,
2013-03-28 15:05:00,47.3,17.4,30.22,NNW,328,1.0,8.0,30,0.00,,,0.00,meteohub,2013-03-28 21:05:00,
2013-03-28 15:10:00,47.1,16.5,30.22,WNW,293,4.0,9.0,29,0.00,,,0.00,meteohub,2013-03-28 21:10:00,
2013-03-28 15:15:00,46.8,17.8,30.22,WNW,291,4.0,9.0,31,0.00,,,0.00,meteohub,2013-03-28 21:15:00,
2013-03-28 15:20:00,46.6,17.6,30.22,WNW,303,5.0,9.0,31,0.00,,,0.00,meteohub,2013-03-28 21:20:00,
2013-03-28 15:25:00,46.6,16.9,30.22,West,267,5.0,9.0,30,0.00,,,0.00,meteohub,2013-03-28 21:25:00,
2013-03-28 15:30:00,46.8,17.8,30.22,WSW,250,3.0,7.0,31,0.00,,,0.00,meteohub,2013-03-28 21:30:00,
2013-03-28 15:36:00,46.9,17.1,30.21,WNW,299,4.0,8.0,30,0.00,,,0.00,meteohub,2013-03-28 21:36:00,
2013-03-28 15:41:00,47.1,18.0,30.22,WSW,251,2.0,8.0,31,0.00,,,0.00,meteohub,2013-03-28 21:41:00,
2013-03-28 15:46:00,46.9,19.4,30.21,SW,220,3.0,10.0,33,0.00,,,0.00,meteohub,2013-03-28 21:46:00,
2013-03-28 15:51:00,47.1,17.2,30.21,SW,235,8.0,10.0,30,0.00,,,0.00,meteohub,2013-03-28 21:51:00,
2013-03-28 15:56:00,46.8,17.8,30.21,SSW,213,3.0,10.0,31,0.00,,,0.00,meteohub,2013-03-28 21:56:00,
2013-03-28 16:02:00,46.2,16.5,30.21,WSW,238,4.0,8.0,30,0.00,,,0.00,meteohub,2013-03-28 22:02:00,
2013-03-28 16:07:00,45.9,18.3,30.22,WSW,242,4.0,8.0,33,0.00,,,0.00,meteohub,2013-03-28 22:07:00,
2013-03-28 16:12:00,45.5,18.1,30.22,SW,223,2.0,9.0,33,0.00,,,0.00,meteohub,2013-03-28 22:12:00,
2013-03-28 16:17:00,45.3,18.7,30.22,WNW,290,3.0,9.0,34,0.00,,,0.00,meteohub,2013-03-28 22:17:00,
2013-03-28 16:22:00,45.3,19.2,30.21,West,277,1.0,9.0,35,0.00,,,0.00,meteohub,2013-03-28 22:22:00,
2013-03-28 16:27:00,45.5,19.4,30.22,WSW,253,4.0,7.0,35,0.00,,,0.00,meteohub,2013-03-28 22:27:00,
2013-03-28 16:33:00,45.3,17.2,30.22,WSW,257,2.0,7.0,32,0.00,,,0.00,meteohub,2013-03-28 22:33:00,
2013-03-28 16:38:00,45.0,18.9,30.22,WSW,246,5.0,8.0,35,0.00,,,0.00,meteohub,2013-03-28 22:38:00,
2013-03-28 16:43:00,45.0,18.9,30.22,WSW,243,2.0,8.0,35,0.00,,,0.00,meteohub,2013-03-28 22:43:00,
2013-03-28 16:48:00,44.6,18.7,30.22,WSW,240,4.0,8.0,35,0.00,,,0.00,meteohub,2013-03-28 22:48:00,
2013-03-28 16:53:00,44.2,19.0,30.22,SW,234,2.0,9.0,36,0.00,,,0.00,meteohub,2013-03-28 22:53:00,
2013-03-28 16:58:00,43.9,18.7,30.22,SW,215,2.0,9.0,36,0.00,,,0.00,meteohub,2013-03-28 22:58:00,
2013-03-28 17:04:00,43.9,18.7,30.22,SE,137,5.0,9.0,36,0.00,,,0.00,meteohub,2013-03-28 23:04:00,
2013-03-28 17:09:00,43.9,18.0,30.23,SW,236,2.0,9.0,35,0.00,,,0.00,meteohub,2013-03-28 23:09:00,
2013-03-28 17:14:00,43.9,18.0,30.23,WSW,240,1.0,7.0,35,0.00,,,0.00,meteohub,2013-03-28 23:14:00,
2013-03-28 17:19:00,43.9,19.9,30.23,South,188,6.0,6.0,38,0.00,,,0.00,meteohub,2013-03-28 23:19:00,
2013-03-28 17:24:00,43.5,20.1,30.23,South,177,4.0,8.0,39,0.00,,,0.00,meteohub,2013-03-28 23:24:00,
2013-03-28 17:29:00,43.3,20.1,30.23,SW,226,2.0,8.0,39,0.00,,,0.00,meteohub,2013-03-28 23:29:00,
2013-03-28 17:35:00,43.2,19.9,30.24,ESE,122,6.0,8.0,39,0.00,,,0.00,meteohub,2013-03-28 23:35:00,
2013-03-28 17:40:00,43.0,19.8,30.23,South,189,2.0,8.0,39,0.00,,,0.00,meteohub,2013-03-28 23:40:00,
2013-03-28 17:45:00,42.8,21.4,30.24,WSW,242,4.0,8.0,42,0.00,,,0.00,meteohub,2013-03-28 23:45:00,
2013-03-28 17:50:00,42.4,21.0,30.24,WSW,244,4.0,9.0,42,0.00,,,0.00,meteohub,2013-03-28 23:50:00,
2013-03-28 17:56:00,42.3,20.8,30.25,SW,226,1.0,9.0,42,0.00,,,0.00,meteohub,2013-03-28 23:56:00,
2013-03-28 18:01:00,42.1,20.7,30.24,SW,229,3.0,9.0,42,0.00,,,0.00,meteohub,2013-03-29 00:01:00,
2013-03-28 18:06:00,42.1,21.7,30.25,WSW,239,3.0,5.0,44,0.00,,,0.00,meteohub,2013-03-29 00:06:00,
2013-03-28 18:11:00,41.9,21.6,30.24,SSE,159,1.0,11.0,44,0.00,,,0.00,meteohub,2013-03-29 00:11:00,
2013-03-28 18:16:00,41.9,22.1,30.24,SSE,158,1.0,11.0,45,0.00,,,0.00,meteohub,2013-03-29 00:16:00,
2013-03-28 18:21:00,41.7,21.9,30.24,South,188,2.0,9.0,45,0.00,,,0.00,meteohub,2013-03-29 00:21:00,
2013-03-28 18:26:00,41.7,21.4,30.24,West,273,2.0,3.0,44,0.00,,,0.00,meteohub,2013-03-29 00:26:00,
2013-03-28 18:32:00,41.5,21.7,30.24,West,273,0.0,3.0,45,0.00,,,0.00,meteohub,2013-03-29 00:32:00,
2013-03-28 18:37:00,41.5,23.4,30.24,West,273,0.0,3.0,48,0.00,,,0.00,meteohub,2013-03-29 00:37:00,
2013-03-28 18:42:00,41.5,25.2,30.25,West,273,0.0,3.0,52,0.00,,,0.00,meteohub,2013-03-29 00:42:00,
2013-03-28 18:47:00,41.2,25.9,30.25,West,273,0.0,1.0,54,0.00,,,0.00,meteohub,2013-03-29 00:47:00,
2013-03-28 18:52:00,40.8,25.9,30.25,West,273,0.0,1.0,55,0.00,,,0.00,meteohub,2013-03-29 00:52:00,
2013-03-28 18:57:00,40.3,25.9,30.25,West,273,0.0,0.0,56,0.00,,,0.00,meteohub,2013-03-29 00:57:00,
2013-03-28 19:02:00,39.9,26.4,30.25,West,273,0.0,0.0,58,0.00,,,0.00,meteohub,2013-03-29 01:02:00,
2013-03-28 19:07:00,39.4,27.1,30.25,West,273,0.0,0.0,61,0.00,,,0.00,meteohub,2013-03-29 01:07:00,
2013-03-28 19:12:00,38.8,25.7,30.25,West,273,0.0,0.0,59,0.00,,,0.00,meteohub,2013-03-29 01:12:00,
2013-03-28 19:17:00,38.1,25.9,30.25,West,273,1.0,1.0,61,0.00,,,0.00,meteohub,2013-03-29 01:17:00,
2013-03-28 19:23:00,37.2,24.6,30.25,West,273,2.0,2.0,60,0.00,,,0.00,meteohub,2013-03-29 01:23:00,
2013-03-28 19:28:00,36.9,25.0,30.25,West,273,2.0,2.0,62,0.00,,,0.00,meteohub,2013-03-29 01:28:00,
2013-03-28 19:33:00,36.5,25.9,30.25,West,273,1.0,2.0,65,0.00,,,0.00,meteohub,2013-03-29 01:33:00,
2013-03-28 19:38:00,36.1,25.9,30.25,West,273,1.0,2.0,66,0.00,,,0.00,meteohub,2013-03-29 01:38:00,
2013-03-28 19:43:00,36.0,26.1,30.25,West,273,2.0,2.0,67,0.00,,,0.00,meteohub,2013-03-29 01:43:00,
2013-03-28 19:48:00,35.8,24.8,30.25,SSE,164,2.0,3.0,64,0.00,,,0.00,meteohub,2013-03-29 01:48:00,
2013-03-28 19:54:00,35.8,24.4,30.25,SE,134,1.0,3.0,63,0.00,,,0.00,meteohub,2013-03-29 01:54:00,
2013-03-28 19:59:00,35.8,24.4,30.25,SE,132,1.0,4.0,63,0.00,,,0.00,meteohub,2013-03-29 01:59:00,
2013-03-28 20:04:00,35.6,24.3,30.25,SE,132,1.0,4.0,63,0.00,,,0.00,meteohub,2013-03-29 02:04:00,
2013-03-28 20:09:00,35.4,25.2,30.25,SE,132,1.0,4.0,66,0.00,,,0.00,meteohub,2013-03-29 02:09:00,
2013-03-28 20:14:00,35.4,24.8,30.25,SE,132,2.0,3.0,65,0.00,,,0.00,meteohub,2013-03-29 02:14:00,
2013-03-28 20:19:00,35.2,23.9,30.25,SE,127,3.0,3.0,63,0.00,,,0.00,meteohub,2013-03-29 02:19:00,
2013-03-28 20:25:00,35.2,24.3,30.26,SE,130,1.0,3.0,64,0.00,,,0.00,meteohub,2013-03-29 02:25:00,
2013-03-28 20:30:00,35.2,24.6,30.26,SE,130,0.0,4.0,65,0.00,,,0.00,meteohub,2013-03-29 02:30:00,
2013-03-28 20:35:00,35.1,24.8,30.26,SE,130,1.0,3.0,66,0.00,,,0.00,meteohub,2013-03-29 02:35:00,
2013-03-28 20:40:00,34.9,24.3,30.26,SE,128,1.0,2.0,65,0.00,,,0.00,meteohub,2013-03-29 02:40:00,
2013-03-28 20:46:00,34.9,24.3,30.26,SE,128,3.0,3.0,65,0.00,,,0.00,meteohub,2013-03-29 02:46:00,
2013-03-28 20:51:00,34.7,24.1,30.26,SE,128,2.0,3.0,65,0.00,,,0.00,meteohub,2013-03-29 02:51:00,
2013-03-28 20:56:00,34.7,24.4,30.26,ESE,119,1.0,3.0,66,0.00,,,0.00,meteohub,2013-03-29 02:56:00,
2013-03-28 21:02:00,34.5,24.3,30.27,ESE,119,1.0,3.0,66,0.00,,,0.00,meteohub,2013-03-29 03:02:00,
2013-03-28 21:07:00,34.2,24.1,30.27,ESE,119,0.0,2.0,66,0.00,,,0.00,meteohub,2013-03-29 03:07:00,
2013-03-28 21:12:00,34.0,23.9,30.26,ESE,119,2.0,2.0,66,0.00,,,0.00,meteohub,2013-03-29 03:12:00,
2013-03-28 21:18:00,33.6,23.9,30.27,ESE,119,1.0,3.0,67,0.00,,,0.00,meteohub,2013-03-29 03:18:00,
2013-03-28 21:23:00,33.6,23.9,30.27,ESE,118,3.0,3.0,67,0.00,,,0.00,meteohub,2013-03-29 03:23:00,
2013-03-28 21:28:00,33.3,23.2,30.27,SE,130,2.0,3.0,66,0.00,,,0.00,meteohub,2013-03-29 03:28:00,
2013-03-28 21:33:00,33.3,23.5,30.27,SE,126,2.0,4.0,67,0.00,,,0.00,meteohub,2013-03-29 03:33:00,
2013-03-28 21:38:00,32.9,23.2,30.27,SE,125,2.0,4.0,67,0.00,,,0.00,meteohub,2013-03-29 03:38:00,
2013-03-28 21:43:00,32.7,23.4,30.27,ESE,116,1.0,4.0,68,0.00,,,0.00,meteohub,2013-03-29 03:43:00,
2013-03-28 21:48:00,32.4,23.0,30.28,ESE,120,2.0,6.0,68,0.00,,,0.00,meteohub,2013-03-29 03:48:00,
2013-03-28 21:54:00,32.2,22.8,30.28,ESE,115,2.0,6.0,68,0.00,,,0.00,meteohub,2013-03-29 03:54:00,
2013-03-28 21:59:00,32.0,23.0,30.28,ESE,114,3.0,4.0,69,0.00,,,0.00,meteohub,2013-03-29 03:59:00,
2013-03-28 22:00:00,31.8,22.8,30.28,ESE,114,2.0,4.0,69,0.00,,,0.00,meteohub,2013-03-29 04:00:00,
2013-03-28 22:01:00,31.8,22.8,30.28,ESE,114,3.0,3.0,69,0.00,,,0.00,meteohub,2013-03-29 04:01:00,
2013-03-28 22:02:00,31.8,22.8,30.28,ESE,112,3.0,3.0,69,0.00,,,0.00,meteohub,2013-03-29 04:02:00,
2013-03-28 22:05:00,31.8,22.5,30.28,ESE,117,4.0,4.0,68,0.00,,,0.00,meteohub,2013-03-29 04:05:00,
2013-03-28 22:10:00,31.6,23.0,30.29,ESE,119,2.0,3.0,70,0.00,,,0.00,meteohub,2013-03-29 04:10:00,
2013-03-28 22:15:00,31.3,22.3,30.29,ESE,119,1.0,6.0,69,0.00,,,0.00,meteohub,2013-03-29 04:15:00,
2013-03-28 22:20:00,30.9,22.6,30.29,ESE,119,3.0,3.0,71,0.00,,,0.00,meteohub,2013-03-29 04:20:00,
2013-03-28 22:25:00,30.7,22.8,30.28,ESE,117,1.0,3.0,72,0.00,,,0.00,meteohub,2013-03-29 04:25:00,
2013-03-28 22:30:00,30.6,22.6,30.29,ESE,117,1.0,3.0,72,0.00,,,0.00,meteohub,2013-03-29 04:30:00,
2013-03-28 22:36:00,30.6,22.6,30.28,NE,49,2.0,3.0,72,0.00,,,0.00,meteohub,2013-03-29 04:36:00,
2013-03-28 22:41:00,30.4,22.5,30.28,NE,38,1.0,4.0,72,0.00,,,0.00,meteohub,2013-03-29 04:41:00,
2013-03-28 22:46:00,30.4,22.5,30.28,NE,46,3.0,4.0,72,0.00,,,0.00,meteohub,2013-03-29 04:46:00,
2013-03-28 22:51:00,30.4,22.5,30.28,ESE,105,1.0,4.0,72,0.00,,,0.00,meteohub,2013-03-29 04:51:00,
2013-03-28 22:56:00,30.2,22.3,30.28,NE,50,1.0,5.0,72,0.00,,,0.00,meteohub,2013-03-29 04:56:00,
2013-03-28 23:01:00,30.0,21.7,30.28,East,100,2.0,5.0,71,0.00,,,0.00,meteohub,2013-03-29 05:01:00,
2013-03-28 23:07:00,29.7,22.1,30.28,ENE,67,3.0,4.0,73,0.00,,,0.00,meteohub,2013-03-29 05:07:00,
2013-03-28 23:12:00,29.5,21.9,30.28,ENE,67,1.0,4.0,73,0.00,,,0.00,meteohub,2013-03-29 05:12:00,
2013-03-28 23:17:00,29.3,21.4,30.28,SE,128,2.0,3.0,72,0.00,,,0.00,meteohub,2013-03-29 05:17:00,
2013-03-28 23:22:00,29.1,21.6,30.28,SE,128,1.0,3.0,73,0.00,,,0.00,meteohub,2013-03-29 05:22:00,
2013-03-28 23:27:00,28.9,21.4,30.28,SE,128,0.0,4.0,73,0.00,,,0.00,meteohub,2013-03-29 05:27:00,
2013-03-28 23:32:00,28.8,21.6,30.29,SE,128,2.0,4.0,74,0.00,,,0.00,meteohub,2013-03-29 05:32:00,
2013-03-28 23:37:00,28.8,21.6,30.29,ESE,122,1.0,4.0,74,0.00,,,0.00,meteohub,2013-03-29 05:37:00,
2013-03-28 23:42:00,28.8,21.2,30.29,ESE,122,1.0,4.0,73,0.00,,,0.00,meteohub,2013-03-29 05:42:00,
2013-03-28 23:47:00,28.6,21.4,30.28,ESE,122,2.0,4.0,74,0.00,,,0.00,meteohub,2013-03-29 05:47:00,
2013-03-28 23:52:00,28.4,21.2,30.29,ESE,122,1.0,3.0,74,0.00,,,0.00,meteohub,2013-03-29 05:52:00,
2013-03-28 23:57:00,28.2,21.4,30.28,ESE,122,2.0,3.0,75,0.00,,,0.00,meteohub,2013-03-29 05:57:00,